Hazlehurst, GA

3:55 AM EST on December 10, 2019 (GMT -0500)
Hazlehurst

Weather History for KAZE - August, 2019

Change the Weather History Date:

Wednesday, August 14, 2019

  Actual Average Record
Temperature  
Mean Temperature 86 °F -  
Max Temperature 97 °F 90 °F 97 °F (2019)
Min Temperature 77 °F 63 °F 70 °F (2014)
Cooling Degree Days 22    
Growing Degree Days 36 (Base 50)    
Moisture  
Dew Point 74 °F    
Average Humidity 74    
Maximum Humidity 87    
Minimum Humidity 44    
Precipitation  
Precipitation 0.00 in - - ()
Sea Level Pressure  
Sea Level Pressure 29.90 in    
Wind  
Wind Speed 2 mph (SW)    
Max Wind Speed 12 mph    
Max Gust Speed 17 mph    
Visibility 10 miles    
Events Rain , Thunderstorm    
Averages and records for this station are not official NWS values.
T = Trace of Precipitation, MM = Missing Value Source: NWS Daily Summary

Daily Weather History Graph

Daily Weather History Graph

Search for Another Location

Airport or City:

Astronomy

Aug. 14, 2019 Rise Set
Actual Time 6:54 AM EDT 8:15 PM EDT
Civil Twilight 6:28 AM EDT 8:41 PM EDT
Nautical Twilight 5:57 AM EDT 9:12 PM EDT
Astronomical Twilight 5:25 AM EDT 9:43 PM EDT
Moon 8:04 PM EDT (8/14) 5:56 AM EDT (8/14)
Length of Visible Light 14h 12m
Length of Day
13h 21m
Waxing Gibbous, 99% of the Moon is Illuminated
Aug 14
Waxing Gibbous
Aug 15
Full
Aug 23
Last Quarter
Aug 30
New
Sep 5
First Quarter

Hourly Weather History & Observations

Time (EDT) Temp. Heat Index Dew Point Humidity Pressure Visibility Wind Dir Wind Speed Gust Speed Precip Events Conditions
12:10 AM 85.1 °F 92.9 °F 74.3 °F 70% 29.91 in 10.0 mi Calm Calm - N/A   Clear
12:30 AM 84.4 °F 92.0 °F 74.3 °F 72% 29.90 in 10.0 mi South 4.6 mph - N/A   Clear
12:50 AM 84.2 °F 91.6 °F 74.3 °F 72% 29.91 in 10.0 mi South 4.6 mph - N/A   Clear
1:10 AM 84.2 °F 91.2 °F 73.9 °F 71% 29.91 in 10.0 mi South 6.9 mph - N/A   Clear
1:30 AM 83.7 °F 90.4 °F 73.9 °F 72% 29.91 in 10.0 mi South 4.6 mph - N/A   Clear
1:50 AM 83.3 °F 90.2 °F 74.3 °F 74% 29.90 in 10.0 mi SSW 4.6 mph - N/A   Clear
2:10 AM 82.9 °F 89.7 °F 74.3 °F 75% 29.90 in 10.0 mi SSW 3.5 mph - N/A   Clear
2:30 AM 82.4 °F 88.7 °F 74.3 °F 76% 29.89 in 10.0 mi SSW 3.5 mph - N/A   Clear
2:50 AM 82.0 °F 88.1 °F 74.3 °F 77% 29.89 in 10.0 mi Calm Calm - N/A   Clear
3:10 AM 81.9 °F 88.0 °F 74.5 °F 78% 29.89 in 10.0 mi Calm Calm - N/A   Clear
3:30 AM 81.5 °F 87.4 °F 74.5 °F 79% 29.89 in 10.0 mi Calm Calm - N/A   Clear
3:50 AM 81.5 °F 87.4 °F 74.5 °F 79% 29.89 in 10.0 mi Calm Calm - N/A   Clear
4:10 AM 81.1 °F 86.8 °F 74.5 °F 80% 29.89 in 10.0 mi Calm Calm - N/A   Clear
4:50 AM 81.0 °F 86.5 °F 74.7 °F 81% 29.90 in 10.0 mi Calm Calm - N/A   Clear
5:10 AM 81.0 °F 86.5 °F 74.7 °F 81% 29.91 in 10.0 mi Calm Calm - N/A   Clear
5:50 AM 80.8 °F 86.3 °F 74.7 °F 82% 29.92 in 10.0 mi Calm Calm - N/A   Scattered Clouds
6:10 AM 81.3 °F 87.2 °F 74.5 °F 80% 29.92 in 10.0 mi Calm Calm - N/A   Scattered Clouds
6:30 AM 80.6 °F 85.9 °F 74.5 °F 82% 29.92 in 10.0 mi Calm Calm - N/A   Scattered Clouds
6:50 AM 79.9 °F - 74.5 °F 83% 29.91 in 10.0 mi Calm Calm - N/A   Clear
7:10 AM 80.2 °F 85.4 °F 74.8 °F 84% 29.91 in 10.0 mi Calm Calm - N/A   Clear
7:30 AM 80.8 °F 86.3 °F 74.7 °F 82% 29.91 in 10.0 mi Calm Calm - N/A   Clear
7:50 AM 81.0 °F 86.7 °F 74.8 °F 82% 29.91 in 10.0 mi Calm Calm - N/A   Clear
8:10 AM 82.4 °F 89.5 °F 75.2 °F 79% 29.91 in 10.0 mi Calm Calm - N/A   Clear
8:30 AM 83.5 °F 91.2 °F 75.2 °F 76% 29.91 in 10.0 mi Calm Calm - N/A   Clear
8:50 AM 85.1 °F 93.7 °F 75.2 °F 72% 29.91 in 10.0 mi Calm Calm - N/A   Clear
9:10 AM 86.2 °F 95.1 °F 75.0 °F 69% 29.91 in 10.0 mi Calm Calm - N/A   Clear
9:30 AM 86.9 °F 95.9 °F 74.7 °F 67% 29.92 in 10.0 mi Calm Calm - N/A   Clear
9:50 AM 88.9 °F 98.6 °F 74.7 °F 63% 29.91 in 10.0 mi Calm Calm - N/A   Clear
10:10 AM 90.0 °F 99.6 °F 74.5 °F 60% 29.91 in 10.0 mi Calm Calm - N/A   Clear
10:30 AM 91.6 °F 102.3 °F 74.8 °F 58% 29.91 in 10.0 mi SW 3.5 mph - N/A   Clear
10:50 AM 93.2 °F 103.0 °F 73.8 °F 53% 29.91 in 10.0 mi Calm Calm - N/A   Clear
11:10 AM 94.6 °F 103.7 °F 72.7 °F 49% 29.91 in 10.0 mi West 3.5 mph - N/A   Clear
11:30 AM 95.5 °F 103.7 °F 72.0 °F 46% 29.91 in 10.0 mi SW 3.5 mph - N/A   Clear
11:50 AM 95.4 °F 104.7 °F 72.9 °F 48% 29.91 in 10.0 mi WSW 5.8 mph - N/A   Mostly Cloudy
12:10 PM 96.8 °F 105.1 °F 71.6 °F 44% 29.90 in 10.0 mi WNW 4.6 mph - N/A   Scattered Clouds
12:30 PM 94.5 °F 102.0 °F 71.2 °F 47% 29.91 in 10.0 mi SSW 11.5 mph 17.3 mph N/A Thunderstorm Thunderstorm
12:50 PM 84.0 °F 91.5 °F 74.7 °F 73% 29.92 in 2.0 mi Calm Calm - N/A Rain , Thunderstorm Heavy Thunderstorms and Rain
1:10 PM 83.3 °F 89.9 °F 73.8 °F 73% 29.91 in 5.0 mi ESE 3.5 mph - N/A Rain , Thunderstorm Thunderstorms and Rain
1:30 PM 83.5 °F 91.9 °F 75.9 °F 78% 29.91 in 10.0 mi Calm Calm - N/A Rain , Thunderstorm Light Thunderstorms and Rain
1:50 PM 84.2 °F 91.6 °F 74.1 °F 72% 29.92 in 10.0 mi Calm Calm - N/A Rain , Thunderstorm Light Thunderstorms and Rain
2:10 PM 83.5 °F 90.0 °F 73.8 °F 72% 29.90 in 10.0 mi Calm Calm - N/A   Scattered Clouds
2:50 PM 85.1 °F 92.9 °F 74.1 °F 70% 29.88 in 10.0 mi Calm Calm - N/A   Clear
3:10 PM 86.4 °F 95.1 °F 74.8 °F 68% 29.87 in 10.0 mi Calm Calm - N/A   Clear
3:30 PM 89.1 °F 96.5 °F 72.7 °F 58% 29.84 in 10.0 mi Calm Calm - N/A   Clear
3:50 PM 91.4 °F 100.1 °F 73.2 °F 55% 29.84 in 10.0 mi Calm Calm - N/A   Clear
4:10 PM 91.4 °F 100.7 °F 73.6 °F 56% 29.85 in 10.0 mi NNE 6.9 mph - N/A   Clear
4:30 PM 88.0 °F 99.6 °F 76.8 °F 69% 29.85 in 10.0 mi NNE 3.5 mph - N/A Thunderstorm Clear
4:50 PM 85.3 °F 95.0 °F 76.3 °F 74% 29.87 in 10.0 mi NNE 8.1 mph - N/A   Clear
5:10 PM 85.3 °F 93.4 °F 74.3 °F 70% 29.89 in 10.0 mi North 9.2 mph - N/A   Clear
5:30 PM 83.7 °F 90.7 °F 74.3 °F 73% 29.88 in 10.0 mi North 8.1 mph - N/A   Clear
5:50 PM 83.1 °F 89.8 °F 73.9 °F 74% 29.89 in 10.0 mi NW 5.8 mph - N/A Thunderstorm Clear
6:10 PM 81.9 °F 86.4 °F 71.6 °F 71% 29.89 in 10.0 mi NNW 4.6 mph - N/A Thunderstorm Thunderstorm
6:30 PM 79.7 °F - 72.9 °F 80% 29.89 in 10.0 mi Calm Calm - N/A Rain Light Rain
6:50 PM 78.3 °F - 73.0 °F 84% 29.89 in 10.0 mi Calm Calm - N/A Rain Light Rain
7:10 PM 78.3 °F - 73.4 °F 85% 29.89 in 10.0 mi Calm Calm - N/A Rain Light Rain
7:30 PM 78.3 °F - 73.8 °F 86% 29.89 in 7.0 mi Calm Calm - N/A Rain Light Rain
7:50 PM 77.9 °F - 73.8 °F 87% 29.90 in 7.0 mi SE 5.8 mph - N/A Rain Light Rain
8:10 PM 77.9 °F - 73.6 °F 86% 29.91 in 10.0 mi SSE 6.9 mph - N/A Rain Light Rain
8:30 PM 78.6 °F - 73.0 °F 83% 29.92 in 10.0 mi Calm Calm - N/A Rain Light Rain
8:50 PM 78.8 °F - 73.4 °F 83% 29.93 in 10.0 mi Calm Calm - N/A Rain Light Rain
9:10 PM 78.8 °F - 73.4 °F 83% 29.94 in 10.0 mi South 6.9 mph - N/A Rain Light Rain
9:30 PM 78.4 °F - 73.4 °F 84% 29.95 in 10.0 mi SW 8.1 mph - N/A   Clear
9:50 PM 77.9 °F - 72.7 °F 84% 29.94 in 10.0 mi SSW 6.9 mph - N/A   Clear
10:10 PM 77.5 °F - 72.5 °F 84% 29.94 in 10.0 mi SSW 3.5 mph - N/A   Clear
10:30 PM 77.4 °F - 72.5 °F 85% 29.94 in 10.0 mi Calm Calm - N/A   Clear
10:50 PM 77.0 °F - 72.1 °F 85% 29.93 in 10.0 mi SW 3.5 mph - N/A   Clear
11:10 PM 77.0 °F - 72.1 °F 85% 29.92 in 10.0 mi WSW 3.5 mph - N/A   Clear
11:30 PM 77.2 °F - 72.5 °F 85% 29.92 in 10.0 mi Calm Calm - N/A   Clear
11:50 PM 77.0 °F - 72.7 °F 86% 29.90 in 10.0 mi Calm Calm - N/A   Clear